START_TIME,STEP,MOV.,H8,t_acc.,H43,t_acc.,M25,t_acc.,H9,t_acc.
1989-08-27T06:00:30.080 ,3,0,0.,12.0,0.,12.0,0.,12.0,0.,12.0
1989-08-27T06:00:42.080 ,3,0,0.,12.0,0.,12.0,0.,12.0,0.,12.0
1989-08-27T06:00:54.080 ,4,0,0.,12.0,0.,12.0,0.,12.0,0.,12.0
1989-08-27T06:01:06.080 ,4,0,0.,12.0,0.,12.0,0.,12.0,0.,12.0
1989-08-27T06:01:18.080 ,4,0,0.,12.0,0.,12.0,0.,12.0,0.,12.0
1989-08-27T06:01:30.080 ,4,0,0.,12.0,0.,12.0,0.,12.0,0.,12.0
1989-08-27T06:01:42.080 ,5,0,0.,12.0,0.,12.0,0.,12.0,0.,12.0
1989-08-27T06:01:54.080 ,5,0,0.,12.0,0.,12.0,0.,12.0,0.,12.0
1989-08-27T06:02:06.080 ,5,0,0.,12.0,0.,12.0,0.,12.0,0.,12.0
1989-08-27T06:02:18.080 ,5,0,0.,12.0,0.,12.0,0.,12.0,0.,12.0
1989-08-27T06:02:30.080 ,6,0,0.,12.0,0.,12.0,0.,12.0,0.,12.0
1989-08-27T06:02:42.080 ,6,0,0.,12.0,0.,12.0,0.,12.0,0.,12.0
1989-08-27T06:02:54.080 ,6,0,0.,12.0,0.,12.0,0.,12.0,0.,12.0
1989-08-27T06:03:06.080 ,6,0,0.,12.0,0.,12.0,0.,12.0,0.,12.0
1989-08-27T06:03:18.080 ,7,0,0.,12.0,0.,12.0,0.,12.0,0.,12.0
1989-08-27T06:03:30.080 ,7,0,0.,12.0,0.,12.0,0.,12.0,0.,12.0
1989-08-27T06:03:42.080 ,7,0,0.,12.0,0.,12.0,0.,12.0,0.,12.0
1989-08-27T06:03:54.080 ,7,0,0.,12.0,0.,12.0,0.,12.0,0.,12.0
1989-08-27T06:04:06.080 ,7,0,0.,12.0,0.,12.0,0.,12.0,0.,12.0
1989-08-27T06:04:18.080 ,7,0,0.,12.0,0.,12.0,0.,12.0,0.,12.0
1989-08-27T06:04:30.080 ,7,0,0.,12.0,0.,12.0,0.,12.0,0.,12.0
1989-08-27T06:04:42.080 ,7,0,0.,12.0,0.,12.0,0.,12.0,0.,12.0
1989-08-27T06:04:54.080 ,6,0,0.,12.0,0.,12.0,0.,12.0,0.,12.0
1989-08-27T06:05:06.080 ,6,0,0.,12.0,0.,12.0,0.,12.0,0.,12.0
1989-08-27T06:05:18.080 ,6,0,0.,12.0,0.,12.0,0.,12.0,0.,12.0
1989-08-27T06:05:30.080 ,6,0,0.,12.0,0.,12.0,0.,12.0,0.,12.0
1989-08-27T06:05:42.080 ,5,0,0.,12.0,0.,12.0,0.,12.0,0.,12.0
1989-08-27T06:05:54.080 ,5,0,0.,12.0,0.,12.0,0.,12.0,0.,12.0
1989-08-27T06:06:06.080 ,5,0,0.,12.0,0.,12.0,0.,12.0,0.,12.0
1989-08-27T06:06:18.080 ,5,0,0.,12.0,0.,12.0,0.,12.0,0.,12.0
1989-08-27T06:06:30.080 ,4,0,0.,12.0,0.,12.0,0.,12.0,0.,12.0
1989-08-27T06:06:42.080 ,4,0,0.,12.0,0.,12.0,0.,12.0,0.,12.0
1989-08-27T06:06:54.080 ,4,0,0.,12.0,0.,12.0,0.,12.0,0.,12.0
1989-08-27T06:07:06.080 ,4,0,0.,12.0,0.,12.0,0.,12.0,0.,12.0
1989-08-27T06:07:18.080 ,3,0,0.,12.0,0.,12.0,0.,12.0,0.,12.0
1989-08-27T06:07:30.080 ,3,0,0.,12.0,0.,12.0,0.,12.0,0.,12.0
1989-08-27T06:07:42.080 ,3,0,0.,12.0,0.,12.0,0.,12.0,0.,12.0
1989-08-27T06:07:54.080 ,3,0,0.,12.0,0.,12.0,0.,12.0,0.,12.0
1989-08-27T06:08:06.080 ,2,0,0.,12.0,0.,12.0,0.,12.0,0.,12.0
1989-08-27T06:08:18.080 ,2,0,0.,12.0,0.,12.0,0.,12.0,0.,12.0
1989-08-27T06:08:30.080 ,2,0,0.,12.0,0.,12.0,0.,12.0,0.,12.0
1989-08-27T06:08:42.080 ,2,0,0.,12.0,0.,12.0,0.,12.0,0.,12.0
1989-08-27T06:08:54.080 ,1,0,0.,12.0,0.,12.0,0.,12.0,0.,12.0
1989-08-27T06:09:06.080 ,1,0,0.,12.0,0.,12.0,0.,12.0,0.,12.0
1989-08-27T06:09:18.080 ,1,0,0.,12.0,0.,12.0,0.,12.0,0.,12.0
1989-08-27T06:09:30.080 ,1,0,0.,12.0,0.,12.0,0.,12.0,0.,12.0
1989-08-27T06:09:42.080 ,0,0,0.,12.0,0.,12.0,0.,12.0,0.,12.0
1989-08-27T06:09:54.080 ,0,0,0.,12.0,0.,12.0,0.,12.0,0.,12.0
1989-08-27T06:10:06.080 ,0,0,0.,12.0,0.,12.0,0.,12.0,0.,12.0
1989-08-27T06:10:18.080 ,0,0,0.,12.0,0.,12.0,0.,12.0,0.,12.0
1989-08-27T06:10:30.080 ,0,0,0.,12.0,0.,12.0,0.,12.0,0.,12.0
1989-08-27T06:10:42.080 ,0,0,0.,12.0,0.,12.0,0.,12.0,0.,12.0
1989-08-27T06:10:54.080 ,0,0,0.,12.0,0.,12.0,0.,12.0,0.,12.0
1989-08-27T06:11:06.080 ,0,0,0.,12.0,0.,12.0,0.,12.0,0.,12.0
1989-08-27T06:11:18.080 ,1,0,0.,12.0,0.,12.0,0.,12.0,0.,12.0
1989-08-27T06:11:30.080 ,1,0,0.,12.0,0.,12.0,0.,12.0,0.,12.0
1989-08-27T06:11:42.080 ,1,0,0.,12.0,0.,12.0,0.,12.0,0.,12.0
1989-08-27T06:11:54.080 ,1,0,0.,12.0,0.,12.0,0.,12.0,0.,12.0
1989-08-27T06:12:06.080 ,2,0,0.,12.0,0.,12.0,0.,12.0,0.,12.0
1989-08-27T06:12:18.080 ,2,0,0.,12.0,0.,12.0,0.,12.0,0.,12.0
1989-08-27T06:12:30.080 ,2,0,0.,12.0,0.,12.0,0.,12.0,0.,12.0
1989-08-27T06:12:42.080 ,2,0,0.,12.0,0.,12.0,0.,12.0,0.,12.0
1989-08-27T06:12:54.080 ,3,0,0.,12.0,0.,12.0,0.,12.0,0.,12.0
1989-08-27T06:13:06.080 ,3,0,0.,12.0,0.,12.0,0.,12.0,0.,12.0
1989-08-27T06:13:18.080 ,3,0,0.,12.0,0.,12.0,0.,12.0,0.,12.0
1989-08-27T06:13:30.080 ,3,0,0.,12.0,0.,12.0,0.,12.0,0.,12.0
1989-08-27T06:13:42.080 ,4,0,0.,12.0,0.,12.0,0.,12.0,0.,12.0
1989-08-27T06:13:54.080 ,4,0,0.,12.0,0.,12.0,0.,12.0,0.,12.0
1989-08-27T06:14:06.080 ,4,0,0.,12.0,0.,12.0,0.,12.0,0.,12.0
1989-08-27T06:14:18.080 ,4,0,0.,12.0,0.,12.0,0.,12.0,0.,12.0
1989-08-27T06:14:30.080 ,5,0,0.,12.0,0.,12.0,0.,12.0,0.,12.0
1989-08-27T06:14:42.080 ,5,0,0.,12.0,0.,12.0,0.,12.0,0.,12.0
1989-08-27T06:14:54.080 ,5,0,0.,12.0,0.,12.0,0.,12.0,0.,12.0
1989-08-27T06:15:06.080 ,5,0,0.,12.0,0.,12.0,0.,12.0,0.,12.0
1989-08-27T06:15:18.080 ,6,0,0.,12.0,0.,12.0,0.,12.0,0.,12.0
1989-08-27T06:15:30.080 ,6,0,0.,12.0,0.,12.0,0.,12.0,0.,12.0
1989-08-27T06:15:42.080 ,6,0,0.,12.0,0.,12.0,0.,12.0,0.,12.0
1989-08-27T06:15:54.080 ,6,0,0.,12.0,0.,12.0,0.,12.0,0.,12.0
1989-08-27T06:16:06.080 ,7,0,0.,12.0,0.,12.0,0.,12.0,0.,12.0
1989-08-27T06:16:18.080 ,7,0,0.,12.0,0.,12.0,0.,12.0,0.,12.0
1989-08-27T06:16:30.080 ,7,0,0.,12.0,0.,12.0,0.,12.0,0.,12.0
1989-08-27T06:16:42.080 ,7,0,0.,12.0,0.,12.0,0.,12.0,0.,12.0
1989-08-27T06:16:54.080 ,7,0,0.,12.0,0.,12.0,0.,12.0,0.,12.0
1989-08-27T06:17:06.080 ,7,0,0.,12.0,0.,12.0,0.,12.0,0.,12.0
1989-08-27T06:17:18.080 ,7,0,0.,12.0,0.,12.0,0.,12.0,0.,12.0
1989-08-27T06:17:30.080 ,7,0,0.,12.0,0.,12.0,0.,12.0,0.,12.0
1989-08-27T06:17:42.080 ,6,0,0.,12.0,0.,12.0,0.,12.0,0.,12.0
1989-08-27T06:17:54.080 ,6,0,0.,12.0,0.,12.0,0.,12.0,0.,12.0
1989-08-27T06:18:06.080 ,6,0,0.,12.0,0.,12.0,0.,12.0,0.,12.0
1989-08-27T06:18:18.080 ,6,0,0.,12.0,0.,12.0,0.,12.0,0.,12.0
1989-08-27T06:18:30.080 ,5,0,0.,12.0,0.,12.0,0.,12.0,0.,12.0
1989-08-27T06:18:42.080 ,5,0,0.,12.0,0.,12.0,0.,12.0,0.,12.0
1989-08-27T06:18:54.080 ,5,0,0.,12.0,0.,12.0,0.,12.0,0.,12.0
1989-08-27T06:19:06.080 ,5,0,0.,12.0,0.,12.0,0.,12.0,0.,12.0
1989-08-27T06:19:18.080 ,4,0,0.,12.0,0.,12.0,0.,12.0,0.,12.0
1989-08-27T06:19:30.080 ,4,0,0.,12.0,0.,12.0,0.,12.0,0.,12.0
1989-08-27T06:19:42.080 ,4,0,0.,12.0,0.,12.0,0.,12.0,0.,12.0
1989-08-27T06:19:54.080 ,4,0,0.,12.0,0.,12.0,0.,12.0,0.,12.0
1989-08-27T06:20:06.080 ,3,0,0.,12.0,0.,12.0,0.,12.0,0.,12.0
1989-08-27T06:20:18.080 ,3,0,0.,12.0,0.,12.0,0.,12.0,0.,12.0
1989-08-27T06:20:30.080 ,3,0,0.,12.0,0.,12.0,0.,12.0,0.,12.0
1989-08-27T06:20:42.080 ,3,0,0.,12.0,0.,12.0,0.,12.0,0.,12.0
1989-08-27T06:20:54.080 ,2,0,0.,12.0,0.,12.0,0.,12.0,0.,12.0
1989-08-27T06:21:06.080 ,2,0,0.,12.0,0.,12.0,0.,12.0,0.,12.0
1989-08-27T06:21:18.080 ,2,0,0.,12.0,0.,12.0,0.,12.0,0.,12.0
1989-08-27T06:21:30.080 ,2,0,0.,12.0,0.,12.0,0.,12.0,0.,12.0
1989-08-27T06:21:42.080 ,1,0,0.,12.0,0.,12.0,0.,12.0,0.,12.0
1989-08-27T06:21:54.080 ,1,0,0.,12.0,0.,12.0,0.,12.0,0.,12.0
1989-08-27T06:22:06.080 ,1,0,0.,12.0,0.,12.0,0.,12.0,0.,12.0
1989-08-27T06:22:18.080 ,1,0,0.,12.0,0.,12.0,0.,12.0,0.,12.0
1989-08-27T06:22:30.080 ,0,0,0.,12.0,0.,12.0,0.,12.0,0.,12.0
1989-08-27T06:22:42.080 ,0,0,0.,12.0,0.,12.0,0.,12.0,0.,12.0
1989-08-27T06:22:54.080 ,0,0,0.,12.0,0.,12.0,0.,12.0,0.,12.0
1989-08-27T06:23:06.080 ,0,0,0.,12.0,0.,12.0,0.,12.0,0.,12.0
1989-08-27T06:23:18.080 ,0,0,0.,12.0,0.,12.0,0.,12.0,0.,12.0
1989-08-27T06:23:30.080 ,0,0,0.,12.0,0.,12.0,0.,12.0,0.,12.0
1989-08-27T06:23:42.080 ,0,0,0.,12.0,0.,12.0,0.,12.0,0.,12.0
1989-08-27T06:23:54.080 ,0,0,0.,12.0,0.,12.0,0.,12.0,0.,12.0
1989-08-27T06:24:06.080 ,1,0,0.,12.0,0.,12.0,0.,12.0,0.,12.0
1989-08-27T06:24:18.080 ,1,0,0.,12.0,0.,12.0,0.,12.0,0.,12.0
1989-08-27T06:24:30.080 ,1,0,0.,12.0,0.,12.0,0.,12.0,0.,12.0
1989-08-27T06:24:42.080 ,1,0,0.,12.0,0.,12.0,0.,12.0,0.,12.0
1989-08-27T06:24:54.080 ,2,0,0.,12.0,0.,12.0,0.,12.0,0.,12.0
1989-08-27T06:25:06.080 ,2,0,0.,12.0,0.,12.0,0.,12.0,0.,12.0
1989-08-27T06:25:18.080 ,2,0,0.,12.0,0.,12.0,0.,12.0,0.,12.0
1989-08-27T06:25:30.080 ,2,0,0.,12.0,0.,12.0,0.,12.0,0.,12.0
1989-08-27T06:25:42.080 ,3,0,0.,12.0,0.,12.0,0.,12.0,0.,12.0
1989-08-27T06:25:54.080 ,3,0,0.,12.0,0.,12.0,0.,12.0,0.,12.0
1989-08-27T06:26:06.080 ,3,0,0.,12.0,0.,12.0,0.,12.0,0.,12.0
1989-08-27T06:26:18.080 ,3,0,0.,12.0,0.,12.0,0.,12.0,0.,12.0
1989-08-27T06:26:30.080 ,4,0,0.,12.0,0.,12.0,0.,12.0,0.,12.0
1989-08-27T06:26:42.080 ,4,0,0.,12.0,0.,12.0,0.,12.0,0.,12.0
1989-08-27T06:26:54.080 ,4,0,0.,12.0,0.,12.0,0.,12.0,0.,12.0
1989-08-27T06:27:06.080 ,4,0,0.,12.0,0.,12.0,0.,12.0,0.,12.0
1989-08-27T06:27:18.080 ,5,0,0.,12.0,0.,12.0,0.,12.0,0.,12.0
1989-08-27T06:27:30.080 ,5,0,0.,12.0,0.,12.0,0.,12.0,0.,12.0
1989-08-27T06:27:42.080 ,5,0,0.,12.0,0.,12.0,0.,12.0,0.,12.0
1989-08-27T06:27:54.080 ,5,0,0.,12.0,0.,12.0,0.,12.0,0.,12.0
1989-08-27T06:28:06.080 ,6,0,0.,12.0,0.,12.0,0.,12.0,0.,12.0
1989-08-27T06:28:18.080 ,6,0,0.,12.0,0.,12.0,0.,12.0,0.,12.0
1989-08-27T06:28:30.080 ,6,0,0.,12.0,0.,12.0,0.,12.0,0.,12.0
1989-08-27T06:28:42.080 ,6,0,0.,12.0,0.,12.0,0.,12.0,0.,12.0
1989-08-27T06:28:54.080 ,7,0,0.,12.0,0.,12.0,0.,12.0,0.,12.0
1989-08-27T06:29:06.080 ,7,0,0.,12.0,0.,12.0,0.,12.0,0.,12.0
1989-08-27T06:29:18.080 ,7,0,0.,12.0,0.,12.0,0.,12.0,0.,12.0
1989-08-27T06:29:30.080 ,7,0,0.,12.0,0.,12.0,0.,12.0,0.,12.0
1989-08-27T06:29:42.080 ,7,0,0.,12.0,0.,12.0,0.,12.0,0.,12.0
1989-08-27T06:29:54.080 ,7,0,0.,12.0,0.,12.0,0.,12.0,0.,12.0
1989-08-27T06:30:06.080 ,7,0,0.,12.0,0.,12.0,0.,12.0,0.,12.0
1989-08-27T06:30:18.080 ,7,0,0.,12.0,0.,12.0,0.,12.0,1.,12.0
1989-08-27T06:30:30.080 ,6,0,0.,12.0,0.,12.0,0.,12.0,0.,12.0
1989-08-27T06:30:42.080 ,6,0,0.,12.0,0.,12.0,0.,12.0,0.,12.0
1989-08-27T06:30:54.080 ,6,0,0.,12.0,0.,12.0,0.,12.0,0.,12.0
1989-08-27T06:31:06.080 ,6,0,0.,12.0,0.,12.0,0.,12.0,0.,12.0
1989-08-27T06:31:18.080 ,5,0,0.,12.0,0.,12.0,0.,12.0,0.,12.0
1989-08-27T06:31:30.080 ,5,0,0.,12.0,0.,12.0,0.,12.0,0.,12.0
1989-08-27T06:31:42.080 ,5,0,0.,12.0,0.,12.0,0.,12.0,0.,12.0
1989-08-27T06:31:54.080 ,5,0,0.,12.0,0.,12.0,0.,12.0,0.,12.0
1989-08-27T06:32:06.080 ,4,0,0.,12.0,0.,12.0,0.,12.0,0.,12.0
1989-08-27T06:32:18.080 ,4,0,0.,12.0,0.,12.0,0.,12.0,0.,12.0
1989-08-27T06:32:30.080 ,4,0,0.,12.0,0.,12.0,0.,12.0,0.,12.0
1989-08-27T06:32:42.080 ,4,0,0.,12.0,0.,12.0,0.,12.0,0.,12.0
1989-08-27T06:32:54.080 ,3,0,0.,12.0,0.,12.0,0.,12.0,0.,12.0
1989-08-27T06:33:06.080 ,3,0,0.,12.0,0.,12.0,0.,12.0,0.,12.0
1989-08-27T06:33:18.080 ,3,0,0.,12.0,0.,12.0,0.,12.0,0.,12.0
1989-08-27T06:33:30.080 ,3,0,0.,12.0,0.,12.0,0.,12.0,0.,12.0
1989-08-27T06:33:42.080 ,2,0,0.,12.0,0.,12.0,0.,12.0,0.,12.0
1989-08-27T06:33:54.080 ,2,0,0.,12.0,0.,12.0,0.,12.0,0.,12.0
1989-08-27T06:34:06.080 ,2,0,0.,12.0,0.,12.0,0.,12.0,0.,12.0
1989-08-27T06:34:18.080 ,2,0,0.,12.0,0.,12.0,0.,12.0,0.,12.0
1989-08-27T06:34:30.080 ,1,0,0.,12.0,0.,12.0,0.,12.0,0.,12.0
1989-08-27T06:34:42.080 ,1,0,0.,12.0,0.,12.0,0.,12.0,0.,12.0
1989-08-27T06:34:54.080 ,1,0,0.,12.0,0.,12.0,0.,12.0,0.,12.0
1989-08-27T06:35:06.080 ,1,0,0.,12.0,0.,12.0,0.,12.0,0.,12.0
1989-08-27T06:35:18.080 ,0,0,0.,12.0,0.,12.0,0.,12.0,0.,12.0
1989-08-27T06:35:30.080 ,0,0,0.,12.0,0.,12.0,0.,12.0,0.,12.0
1989-08-27T06:35:42.080 ,0,0,0.,12.0,0.,12.0,0.,12.0,0.,12.0
1989-08-27T06:35:54.080 ,0,0,0.,12.0,0.,12.0,0.,12.0,0.,12.0
1989-08-27T06:36:06.080 ,0,0,0.,12.0,0.,12.0,0.,12.0,0.,12.0
1989-08-27T06:36:18.080 ,0,0,0.,12.0,0.,12.0,0.,12.0,0.,12.0
1989-08-27T06:36:30.080 ,0,0,0.,12.0,0.,12.0,0.,12.0,0.,12.0
1989-08-27T06:36:42.080 ,0,0,0.,12.0,0.,12.0,0.,12.0,0.,12.0
1989-08-27T06:36:54.080 ,1,0,0.,12.0,0.,12.0,0.,12.0,0.,12.0
1989-08-27T06:37:06.080 ,1,0,0.,12.0,0.,12.0,0.,12.0,0.,12.0
1989-08-27T06:37:18.080 ,1,0,0.,12.0,0.,12.0,0.,12.0,0.,12.0
1989-08-27T06:37:30.080 ,1,0,0.,12.0,0.,12.0,0.,12.0,0.,12.0
1989-08-27T06:37:42.080 ,2,0,0.,12.0,0.,12.0,0.,12.0,0.,12.0
1989-08-27T06:37:54.080 ,2,0,0.,12.0,0.,12.0,0.,12.0,0.,12.0
1989-08-27T06:38:06.080 ,2,0,0.,12.0,0.,12.0,0.,12.0,0.,12.0
1989-08-27T06:38:18.080 ,2,0,0.,12.0,0.,12.0,0.,12.0,0.,12.0
1989-08-27T06:38:30.070 ,3,0,0.,12.0,0.,12.0,0.,12.0,0.,12.0
1989-08-27T06:38:42.070 ,3,0,0.,12.0,0.,12.0,0.,12.0,0.,12.0
1989-08-27T06:38:54.070 ,3,0,0.,12.0,0.,12.0,0.,12.0,0.,12.0
1989-08-27T06:39:06.070 ,3,0,0.,12.0,0.,12.0,0.,12.0,0.,12.0
1989-08-27T06:39:18.070 ,4,0,0.,12.0,0.,12.0,0.,12.0,0.,12.0
1989-08-27T06:39:30.070 ,4,0,0.,12.0,0.,12.0,0.,12.0,0.,12.0
1989-08-27T06:39:42.070 ,4,0,0.,12.0,0.,12.0,0.,12.0,0.,12.0
1989-08-27T06:39:54.070 ,4,0,0.,12.0,0.,12.0,0.,12.0,0.,12.0
1989-08-27T06:40:06.070 ,5,0,0.,12.0,0.,12.0,0.,12.0,0.,12.0
1989-08-27T06:40:18.070 ,5,0,0.,12.0,0.,12.0,0.,12.0,0.,12.0
1989-08-27T06:40:30.070 ,5,0,0.,12.0,0.,12.0,0.,12.0,0.,12.0
1989-08-27T06:40:42.070 ,5,0,0.,12.0,0.,12.0,0.,12.0,0.,12.0
1989-08-27T06:40:54.070 ,6,0,0.,12.0,0.,12.0,0.,12.0,0.,12.0
1989-08-27T06:41:06.070 ,6,0,0.,12.0,0.,12.0,0.,12.0,0.,12.0
1989-08-27T06:41:18.070 ,6,0,0.,12.0,0.,12.0,0.,12.0,0.,12.0
1989-08-27T06:41:30.070 ,6,0,0.,12.0,0.,12.0,0.,12.0,0.,12.0
1989-08-27T06:41:42.070 ,7,0,0.,12.0,0.,12.0,0.,12.0,0.,12.0
1989-08-27T06:41:54.070 ,7,0,0.,12.0,0.,12.0,0.,12.0,0.,12.0
1989-08-27T06:42:06.070 ,7,0,0.,12.0,0.,12.0,0.,12.0,0.,12.0
1989-08-27T06:42:18.070 ,7,0,0.,12.0,0.,12.0,0.,12.0,0.,12.0
1989-08-27T06:42:30.070 ,7,0,0.,12.0,0.,12.0,0.,12.0,0.,12.0
1989-08-27T06:42:42.070 ,7,0,0.,12.0,0.,12.0,0.,12.0,0.,12.0
1989-08-27T06:42:54.070 ,7,0,0.,12.0,0.,12.0,0.,12.0,0.,12.0
1989-08-27T06:43:06.070 ,7,0,0.,12.0,0.,12.0,0.,12.0,0.,12.0
1989-08-27T06:43:18.070 ,6,0,0.,12.0,0.,12.0,0.,12.0,0.,12.0
1989-08-27T06:43:30.070 ,6,0,0.,12.0,0.,12.0,0.,12.0,0.,12.0
1989-08-27T06:43:42.070 ,6,0,0.,12.0,0.,12.0,0.,12.0,0.,12.0
1989-08-27T06:43:54.070 ,6,0,0.,12.0,0.,12.0,0.,12.0,0.,12.0
1989-08-27T06:44:06.070 ,5,0,0.,12.0,0.,12.0,0.,12.0,0.,12.0
1989-08-27T06:44:18.070 ,5,0,0.,12.0,0.,12.0,0.,12.0,0.,12.0
1989-08-27T06:44:30.070 ,5,0,0.,12.0,0.,12.0,0.,12.0,0.,12.0
1989-08-27T06:44:42.070 ,5,0,0.,12.0,0.,12.0,0.,12.0,0.,12.0
1989-08-27T06:44:54.070 ,4,0,0.,12.0,0.,12.0,0.,12.0,0.,12.0
1989-08-27T06:45:06.070 ,4,0,0.,12.0,0.,12.0,0.,12.0,0.,12.0
1989-08-27T06:45:18.070 ,4,0,0.,12.0,0.,12.0,0.,12.0,0.,12.0
1989-08-27T06:45:30.070 ,4,0,0.,12.0,0.,12.0,0.,12.0,0.,12.0
1989-08-27T06:45:42.070 ,3,0,0.,12.0,0.,12.0,0.,12.0,0.,12.0
1989-08-27T06:45:54.070 ,3,0,0.,12.0,0.,12.0,0.,12.0,0.,12.0
1989-08-27T06:46:06.070 ,3,0,0.,12.0,0.,12.0,0.,12.0,0.,12.0
1989-08-27T06:46:18.070 ,3,0,0.,12.0,0.,12.0,0.,12.0,0.,12.0
1989-08-27T06:46:30.070 ,2,0,0.,12.0,0.,12.0,0.,12.0,0.,12.0
1989-08-27T06:46:42.070 ,2,0,0.,12.0,0.,12.0,0.,12.0,0.,12.0
1989-08-27T06:46:54.070 ,2,0,0.,12.0,0.,12.0,0.,12.0,0.,12.0
1989-08-27T06:47:06.070 ,2,0,0.,12.0,0.,12.0,0.,12.0,0.,12.0
1989-08-27T06:47:18.070 ,1,0,0.,12.0,0.,12.0,0.,12.0,0.,12.0
1989-08-27T06:47:30.070 ,1,0,0.,12.0,0.,12.0,0.,12.0,0.,12.0
1989-08-27T06:47:42.070 ,1,0,0.,12.0,0.,12.0,0.,12.0,0.,12.0
1989-08-27T06:47:54.070 ,1,0,0.,12.0,0.,12.0,0.,12.0,0.,12.0
1989-08-27T06:48:06.070 ,0,0,0.,12.0,0.,12.0,0.,12.0,0.,12.0
1989-08-27T06:48:18.070 ,0,0,0.,12.0,0.,12.0,0.,12.0,0.,12.0
1989-08-27T06:48:30.070 ,0,0,0.,12.0,0.,12.0,0.,12.0,0.,12.0
1989-08-27T06:48:42.070 ,0,0,0.,12.0,0.,12.0,0.,12.0,0.,12.0
1989-08-27T06:48:54.070 ,0,0,0.,12.0,0.,12.0,0.,12.0,0.,12.0
1989-08-27T06:49:06.070 ,0,0,0.,12.0,0.,12.0,0.,12.0,0.,12.0
1989-08-27T06:49:18.070 ,0,0,0.,12.0,0.,12.0,0.,12.0,0.,12.0
1989-08-27T06:49:30.070 ,0,0,0.,12.0,0.,12.0,0.,12.0,0.,12.0
1989-08-27T06:49:42.070 ,1,0,0.,12.0,0.,12.0,0.,12.0,0.,12.0
1989-08-27T06:49:54.070 ,1,0,0.,12.0,0.,12.0,0.,12.0,0.,12.0
1989-08-27T06:50:06.070 ,1,0,0.,12.0,0.,12.0,0.,12.0,0.,12.0
1989-08-27T06:50:18.070 ,1,0,0.,12.0,0.,12.0,0.,12.0,0.,12.0
1989-08-27T06:50:30.070 ,2,0,0.,12.0,0.,12.0,0.,12.0,0.,12.0
1989-08-27T06:50:42.070 ,2,0,0.,12.0,0.,12.0,0.,12.0,0.,12.0
1989-08-27T06:50:54.070 ,2,0,0.,12.0,0.,12.0,0.,12.0,0.,12.0
1989-08-27T06:51:06.070 ,2,0,0.,12.0,0.,12.0,0.,12.0,0.,12.0
1989-08-27T06:51:18.070 ,3,0,0.,12.0,0.,12.0,0.,12.0,0.,12.0
1989-08-27T06:51:30.070 ,3,0,0.,12.0,0.,12.0,0.,12.0,0.,12.0
1989-08-27T06:51:42.070 ,3,0,0.,12.0,0.,12.0,0.,12.0,0.,12.0
1989-08-27T06:51:54.070 ,3,0,0.,12.0,0.,12.0,0.,12.0,0.,12.0
1989-08-27T06:52:06.070 ,4,0,0.,12.0,0.,12.0,0.,12.0,0.,12.0
1989-08-27T06:52:18.070 ,4,0,0.,12.0,0.,12.0,0.,12.0,0.,12.0
1989-08-27T06:52:30.070 ,4,0,0.,12.0,0.,12.0,0.,12.0,0.,12.0
1989-08-27T06:52:42.070 ,4,0,0.,12.0,0.,12.0,0.,12.0,0.,12.0
1989-08-27T06:52:54.070 ,5,0,0.,12.0,0.,12.0,0.,12.0,0.,12.0
1989-08-27T06:53:06.070 ,5,0,0.,12.0,0.,12.0,0.,12.0,0.,12.0
1989-08-27T06:53:18.070 ,5,0,0.,12.0,0.,12.0,0.,12.0,0.,12.0
1989-08-27T06:53:30.070 ,5,0,0.,12.0,0.,12.0,0.,12.0,0.,12.0
1989-08-27T06:53:42.070 ,6,0,0.,12.0,0.,12.0,0.,12.0,0.,12.0
1989-08-27T06:53:54.070 ,6,0,0.,12.0,0.,12.0,0.,12.0,0.,12.0
1989-08-27T06:54:06.070 ,6,0,0.,12.0,0.,12.0,0.,12.0,0.,12.0
1989-08-27T06:54:18.070 ,6,0,0.,12.0,0.,12.0,0.,12.0,0.,12.0
1989-08-27T06:54:30.070 ,7,0,0.,12.0,0.,12.0,0.,12.0,0.,12.0
1989-08-27T06:54:42.070 ,7,0,0.,12.0,0.,12.0,0.,12.0,0.,12.0
1989-08-27T06:54:54.070 ,7,0,0.,12.0,0.,12.0,0.,12.0,0.,12.0
1989-08-27T06:55:06.070 ,7,0,0.,12.0,0.,12.0,0.,12.0,0.,12.0
1989-08-27T06:55:18.070 ,7,0,0.,12.0,0.,12.0,0.,12.0,0.,12.0
1989-08-27T06:55:30.070 ,7,0,0.,12.0,0.,12.0,0.,12.0,0.,12.0
1989-08-27T06:55:42.070 ,7,0,0.,12.0,0.,12.0,0.,12.0,0.,12.0
1989-08-27T06:55:54.070 ,7,0,0.,12.0,0.,12.0,0.,12.0,0.,12.0
1989-08-27T06:56:06.070 ,6,0,0.,12.0,0.,12.0,0.,12.0,0.,12.0
1989-08-27T06:56:18.070 ,6,0,0.,12.0,0.,12.0,0.,12.0,0.,12.0
1989-08-27T06:56:30.070 ,6,0,0.,12.0,0.,12.0,0.,12.0,0.,12.0
1989-08-27T06:56:42.070 ,6,0,0.,12.0,0.,12.0,0.,12.0,0.,12.0
1989-08-27T06:56:54.070 ,5,0,0.,12.0,0.,12.0,0.,12.0,0.,12.0
1989-08-27T06:57:06.070 ,5,0,0.,12.0,0.,12.0,0.,12.0,0.,12.0
1989-08-27T06:57:18.070 ,5,0,0.,12.0,0.,12.0,0.,12.0,0.,12.0
1989-08-27T06:57:30.070 ,5,0,0.,12.0,0.,12.0,0.,12.0,0.,12.0
1989-08-27T06:57:42.070 ,4,0,0.,12.0,0.,12.0,0.,12.0,0.,12.0
1989-08-27T06:57:54.070 ,4,0,0.,12.0,0.,12.0,0.,12.0,0.,12.0
1989-08-27T06:58:06.070 ,4,0,0.,12.0,0.,12.0,0.,12.0,0.,12.0
1989-08-27T06:58:18.070 ,4,0,0.,12.0,0.,12.0,0.,12.0,0.,12.0
1989-08-27T06:58:30.070 ,3,0,0.,12.0,0.,12.0,0.,12.0,0.,12.0
1989-08-27T06:58:42.070 ,3,0,0.,12.0,0.,12.0,0.,12.0,0.,12.0
1989-08-27T06:58:54.070 ,3,0,0.,12.0,0.,12.0,0.,12.0,0.,12.0
1989-08-27T06:59:06.070 ,3,0,0.,12.0,0.,12.0,0.,12.0,0.,12.0
1989-08-27T06:59:18.070 ,2,0,0.,12.0,0.,12.0,0.,12.0,0.,12.0
1989-08-27T06:59:30.070 ,2,0,0.,12.0,0.,12.0,0.,12.0,0.,12.0
1989-08-27T06:59:42.070 ,2,0,0.,12.0,0.,12.0,0.,12.0,0.,12.0
1989-08-27T06:59:54.070 ,2,0,0.,12.0,0.,12.0,0.,12.0,0.,12.0
1989-08-27T07:00:06.070 ,1,0,0.,12.0,0.,12.0,0.,12.0,0.,12.0
1989-08-27T07:00:18.070 ,1,0,0.,12.0,0.,12.0,0.,12.0,0.,12.0
1989-08-27T07:00:30.070 ,1,0,0.,12.0,0.,12.0,0.,12.0,0.,12.0
1989-08-27T07:00:42.070 ,1,0,0.,12.0,0.,12.0,0.,12.0,0.,12.0
1989-08-27T07:00:54.070 ,0,0,0.,12.0,0.,12.0,0.,12.0,0.,12.0
1989-08-27T07:01:06.070 ,0,0,0.,12.0,0.,12.0,0.,12.0,0.,12.0
1989-08-27T07:01:18.070 ,0,0,0.,12.0,0.,12.0,0.,12.0,0.,12.0
1989-08-27T07:01:30.070 ,0,0,0.,12.0,0.,12.0,0.,12.0,0.,12.0
1989-08-27T07:01:42.070 ,0,0,0.,12.0,0.,12.0,0.,12.0,0.,12.0
1989-08-27T07:01:54.070 ,0,0,0.,12.0,0.,12.0,0.,12.0,0.,12.0
1989-08-27T07:02:06.070 ,0,0,0.,12.0,0.,12.0,0.,12.0,0.,12.0
1989-08-27T07:02:18.070 ,0,0,0.,12.0,0.,12.0,0.,12.0,0.,12.0
1989-08-27T07:02:30.070 ,1,0,0.,12.0,0.,12.0,0.,12.0,0.,12.0
1989-08-27T07:02:42.070 ,1,0,0.,12.0,0.,12.0,0.,12.0,0.,12.0
1989-08-27T07:02:54.070 ,1,0,0.,12.0,0.,12.0,0.,12.0,0.,12.0
1989-08-27T07:03:06.070 ,1,0,0.,12.0,0.,12.0,0.,12.0,0.,12.0
1989-08-27T07:03:18.070 ,2,0,0.,12.0,0.,12.0,0.,12.0,0.,12.0
1989-08-27T07:03:30.070 ,2,0,0.,12.0,0.,12.0,0.,12.0,0.,12.0
1989-08-27T07:03:42.070 ,2,0,0.,12.0,0.,12.0,0.,12.0,0.,12.0
1989-08-27T07:03:54.070 ,2,0,0.,12.0,0.,12.0,0.,12.0,0.,12.0
1989-08-27T07:04:06.070 ,3,0,0.,12.0,0.,12.0,0.,12.0,0.,12.0
1989-08-27T07:04:18.070 ,3,0,0.,12.0,0.,12.0,0.,12.0,0.,12.0
1989-08-27T07:04:30.070 ,3,0,0.,12.0,0.,12.0,0.,12.0,0.,12.0
1989-08-27T07:04:42.070 ,3,0,0.,12.0,0.,12.0,0.,12.0,0.,12.0
1989-08-27T07:04:54.070 ,4,0,0.,12.0,0.,12.0,0.,12.0,0.,12.0
1989-08-27T07:05:06.070 ,4,0,0.,12.0,0.,12.0,0.,12.0,0.,12.0
1989-08-27T07:05:18.070 ,4,0,0.,12.0,0.,12.0,0.,12.0,0.,12.0
1989-08-27T07:05:30.070 ,4,0,0.,12.0,0.,12.0,0.,12.0,0.,12.0
1989-08-27T07:05:42.070 ,5,0,0.,12.0,0.,12.0,0.,12.0,0.,12.0
1989-08-27T07:05:54.070 ,5,0,0.,12.0,0.,12.0,0.,12.0,0.,12.0
1989-08-27T07:06:06.070 ,5,0,0.,12.0,0.,12.0,0.,12.0,0.,12.0
1989-08-27T07:06:18.070 ,5,0,0.,12.0,0.,12.0,0.,12.0,0.,12.0
1989-08-27T07:06:30.070 ,6,0,0.,12.0,0.,12.0,0.,12.0,0.,12.0
1989-08-27T07:06:42.070 ,6,0,0.,12.0,0.,12.0,0.,12.0,0.,12.0
1989-08-27T07:06:54.070 ,6,0,0.,12.0,0.,12.0,0.,12.0,0.,12.0
1989-08-27T07:07:06.070 ,6,0,0.,12.0,0.,12.0,0.,12.0,0.,12.0
1989-08-27T07:07:18.070 ,7,0,0.,12.0,0.,12.0,0.,12.0,0.,12.0
1989-08-27T07:07:30.070 ,7,0,0.,12.0,0.,12.0,0.,12.0,0.,12.0
1989-08-27T07:07:42.070 ,7,0,0.,12.0,0.,12.0,0.,12.0,0.,12.0
1989-08-27T07:07:54.070 ,7,0,0.,12.0,0.,12.0,0.,12.0,0.,12.0
1989-08-27T07:08:06.070 ,7,0,0.,12.0,0.,12.0,0.,12.0,0.,12.0
1989-08-27T07:08:18.070 ,7,0,0.,12.0,0.,12.0,0.,12.0,0.,12.0
1989-08-27T07:08:30.070 ,7,0,0.,12.0,0.,12.0,0.,12.0,0.,12.0
1989-08-27T07:08:42.070 ,7,0,0.,12.0,0.,12.0,0.,12.0,0.,12.0
1989-08-27T07:08:54.070 ,6,0,0.,12.0,0.,12.0,0.,12.0,0.,12.0
1989-08-27T07:09:06.070 ,6,0,0.,12.0,0.,12.0,0.,12.0,0.,12.0
1989-08-27T07:09:18.070 ,6,0,0.,12.0,0.,12.0,0.,12.0,0.,12.0
1989-08-27T07:09:30.070 ,6,0,0.,12.0,0.,12.0,0.,12.0,0.,12.0
1989-08-27T07:09:42.070 ,5,0,0.,12.0,0.,12.0,0.,12.0,0.,12.0
1989-08-27T07:09:54.070 ,5,0,0.,12.0,0.,12.0,0.,12.0,0.,12.0
1989-08-27T07:10:06.070 ,5,0,0.,12.0,0.,12.0,0.,12.0,0.,12.0
1989-08-27T07:10:18.070 ,5,0,0.,12.0,0.,12.0,0.,12.0,0.,12.0
1989-08-27T07:10:30.070 ,4,0,0.,12.0,0.,12.0,0.,12.0,0.,12.0
1989-08-27T07:10:42.070 ,4,0,0.,12.0,0.,12.0,0.,12.0,0.,12.0
1989-08-27T07:10:54.070 ,4,0,0.,12.0,0.,12.0,0.,12.0,0.,12.0
1989-08-27T07:11:06.070 ,4,0,0.,12.0,0.,12.0,0.,12.0,0.,12.0
1989-08-27T07:11:18.070 ,3,0,0.,12.0,0.,12.0,0.,12.0,0.,12.0
1989-08-27T07:11:30.070 ,3,0,0.,12.0,0.,12.0,0.,12.0,0.,12.0
1989-08-27T07:11:42.070 ,3,0,0.,12.0,0.,12.0,0.,12.0,0.,12.0
1989-08-27T07:11:54.070 ,3,0,0.,12.0,0.,12.0,0.,12.0,0.,12.0
1989-08-27T07:12:06.070 ,2,0,0.,12.0,0.,12.0,0.,12.0,0.,12.0
1989-08-27T07:12:18.070 ,2,0,0.,12.0,0.,12.0,0.,12.0,0.,12.0
1989-08-27T07:12:30.070 ,2,0,0.,12.0,0.,12.0,0.,12.0,0.,12.0
1989-08-27T07:12:42.070 ,2,0,0.,12.0,0.,12.0,0.,12.0,0.,12.0
1989-08-27T07:12:54.070 ,1,0,0.,12.0,0.,12.0,0.,12.0,0.,12.0
1989-08-27T07:13:06.070 ,1,0,0.,12.0,0.,12.0,0.,12.0,0.,12.0
1989-08-27T07:13:18.070 ,1,0,0.,12.0,0.,12.0,0.,12.0,0.,12.0
1989-08-27T07:13:30.070 ,1,0,0.,12.0,0.,12.0,0.,12.0,0.,12.0
1989-08-27T07:13:42.070 ,0,0,0.,12.0,0.,12.0,0.,12.0,0.,12.0
1989-08-27T07:13:54.070 ,0,0,0.,12.0,0.,12.0,0.,12.0,0.,12.0
1989-08-27T07:14:06.070 ,0,0,0.,12.0,0.,12.0,0.,12.0,0.,12.0
1989-08-27T07:14:18.070 ,0,0,0.,12.0,0.,12.0,0.,12.0,0.,12.0
1989-08-27T07:14:30.070 ,0,0,0.,12.0,0.,12.0,0.,12.0,0.,12.0
1989-08-27T07:14:42.070 ,0,0,0.,12.0,0.,12.0,0.,12.0,0.,12.0
1989-08-27T07:14:54.070 ,0,0,0.,12.0,0.,12.0,0.,12.0,0.,12.0
1989-08-27T07:15:06.070 ,0,0,0.,12.0,0.,12.0,0.,12.0,0.,12.0
1989-08-27T07:15:18.070 ,1,0,0.,12.0,0.,12.0,0.,12.0,0.,12.0
1989-08-27T07:15:30.070 ,1,0,0.,12.0,0.,12.0,0.,12.0,0.,12.0
1989-08-27T07:15:42.070 ,1,0,0.,12.0,0.,12.0,0.,12.0,0.,12.0
1989-08-27T07:15:54.070 ,1,0,0.,12.0,0.,12.0,0.,12.0,0.,12.0
1989-08-27T07:16:06.070 ,2,0,0.,12.0,0.,12.0,0.,12.0,0.,12.0
1989-08-27T07:16:18.070 ,2,0,0.,12.0,0.,12.0,0.,12.0,0.,12.0
1989-08-27T07:16:30.070 ,2,0,0.,12.0,0.,12.0,0.,12.0,0.,12.0
1989-08-27T07:16:42.070 ,2,0,0.,12.0,0.,12.0,0.,12.0,0.,12.0
1989-08-27T07:16:54.070 ,3,0,0.,12.0,0.,12.0,0.,12.0,0.,12.0
1989-08-27T07:17:06.070 ,3,0,0.,12.0,0.,12.0,0.,12.0,0.,12.0
1989-08-27T07:17:18.070 ,3,0,0.,12.0,0.,12.0,0.,12.0,0.,12.0
1989-08-27T07:17:30.070 ,3,0,0.,12.0,0.,12.0,0.,12.0,0.,12.0